|
NORAD ID: 27123 Int'l Code: 2001-049BT
Perigee: 665.3 km
Apogee: 729.6 km
Inclination: 97.3 °
Period: 98.6 minutes
Semi major axis: 7068 km
Launch date: October 22, 2001
Source: India (IND)
Note: This is SATELLITE DEBRIS
Two Line Element Set (TLE):
1 27123U 01049BT 13138.01384537 .00000844 00000-0 17827-3 0 7965
2 27123 097.3332 166.9872 0045523 270.1352 148.5400 14.60888977606925
Source:
NASA's NSSDC Master Catalog entry for PSLV DEB
|